User: anonymous   Login
Location: Unspecified
(0.0000°N, 0.0000°E)
Time: 07:51:13
(UTC+01:00)
Language:

Centaur D-1AR AC-41 - Orbit

View from above orbital plane
View from above orbital plane
View from above satellite
View from above satellite

Ground track
Ground track

The orbit data is extracted from the following two-line orbital elements,

1 10976U 78068B   14354.44867279  .00000083  00000-0  51530-3 0  5440
2 10976 021.2063 157.1800 7174935 059.6715 354.9589 02.22297296296012
Epoch (UTC): 20 December 2014 10:46:05
Eccentricity: 0.7174935
inclination: 21.2063°
perigee height: 628 km
apogee height: 36215 km
right ascension of ascending node: 157.1800°
argument of perigee: 59.6715°
revolutions per day: 2.22297296
mean anomaly at epoch: 354.9589°
orbit number at epoch: 29601

The dashed part of the orbit path shows where the satellite is in the earth's shadow,  

DLR